Weather History for Buckhannon, WV

Change the Weather History Date:

Wednesday, August 21, 2013

  Actual Average (KEKN) Record (KEKN)
Temperature  
Mean Temperature 70 °F 69 °F  
Max Temperature 80 °F 80 °F 94 °F (1936)
Min Temperature 60 °F 58 °F 38 °F (1981)
Degree Days  
Heating Degree Days 0 1  
Month to date heating degree days 6  
Since 1 June heating degree days 73  
Since 1 July heating degree days 18  
Cooling Degree Days 5 4  
Month to date cooling degree days 104  
Year to date cooling degree days 385  
Since 1 June cooling degree days 362  
Growing Degree Days 20 (Base 50)    
Moisture  
Dew Point 66 °F    
Average Humidity 90    
Maximum Humidity 100    
Minimum Humidity 70    
Precipitation  
Precipitation 0.06 in 0.12 in 1.64 in (1931)
Month to date precipitation 2.70  
Year to date precipitation 31.67  
Snow  
Snow 0.00 in - - ()
Month to date snowfall  
Since 1 September snowfall  
Snow Depth -    
Sea Level Pressure  
Sea Level Pressure 30.21 in    
Wind  
Wind Speed 1 mph (SW)    
Max Wind Speed 12 mph    
Max Gust Speed 22 mph    
Visibility 7 miles    
Events Rain    
T = Trace of Precipitation, MM = Missing Value Source: NWS Daily Summary

Daily Weather History Graph

Daily Weather History Graph

Search for Another Location

Airport:

Trip Planner

Search our weather history database for the weather conditions in past years. The results will help you decide how hot, cold, wet, or windy it might be!

Date:

Astronomy

Aug. 21, 2013 Rise Set
Actual Time 6:40 AM EDT 8:07 PM EDT
Civil Twilight 6:12 AM EDT 8:35 PM EDT
Nautical Twilight 5:38 AM EDT 9:09 PM EDT
Astronomical Twilight 5:02 AM EDT 9:44 PM EDT
Moon 8:16 PM EDT (8/21) 7:17 AM EDT (8/21)
Length of Visible Light 14h 23m
Length of Day
13h 27m
Full, 100% of the Moon is Illuminated
Aug 21
Full
Aug 28
Last Quarter
Sep 5
New
Sep 12
First Quarter
Sep 19
Full

Hourly Weather History & Observations

Time (EDT) Temp. Heat Index Dew Point Humidity Pressure Visibility Wind Dir Wind Speed Gust Speed Precip Events Conditions
12:15 AM 64.4 °F - 64.4 °F 100% 30.23 in 4.0 mi Calm Calm - N/A   Clear
12:35 AM 64.4 °F - 64.4 °F 100% 30.23 in 4.0 mi Calm Calm - N/A   Clear
12:55 AM 62.6 °F - 62.6 °F 100% 30.23 in 2.0 mi Calm Calm - N/A   Clear
1:15 AM 62.6 °F - 62.6 °F 100% 30.23 in 2.5 mi Calm Calm - N/A   Clear
1:35 AM 62.6 °F - 62.6 °F 100% 30.23 in 2.5 mi Calm Calm - N/A   Clear
1:55 AM 62.6 °F - 62.6 °F 100% 30.23 in 3.0 mi Calm Calm - N/A   Clear
2:15 AM 62.6 °F - 62.6 °F 100% 30.22 in 2.0 mi Calm Calm - N/A   Clear
2:35 AM 62.6 °F - 62.6 °F 100% 30.22 in 3.0 mi Calm Calm - N/A   Clear
2:55 AM 62.6 °F - 62.6 °F 100% 30.22 in 3.0 mi Calm Calm - N/A   Clear
3:15 AM 62.6 °F - 62.6 °F 100% 30.22 in 4.0 mi Calm Calm - N/A   Clear
3:35 AM 62.6 °F - 62.6 °F 100% 30.21 in 4.0 mi Calm Calm - N/A   Clear
3:55 AM 60.8 °F - 60.8 °F 100% 30.22 in 4.0 mi Calm Calm - N/A   Clear
4:15 AM 60.8 °F - 60.8 °F 100% 30.22 in 4.0 mi Calm Calm - N/A   Clear
4:35 AM 60.8 °F - 60.8 °F 100% 30.21 in 4.0 mi Calm Calm - N/A   Clear
4:55 AM 60.8 °F - 60.8 °F 100% 30.22 in 4.0 mi Calm Calm - N/A   Clear
5:15 AM 60.8 °F - 60.8 °F 100% 30.21 in 5.0 mi Calm Calm - N/A   Clear
5:35 AM 60.8 °F - 60.8 °F 100% 30.21 in 4.0 mi Calm Calm - N/A   Clear
5:55 AM 60.8 °F - 60.8 °F 100% 30.21 in 4.0 mi Calm Calm - N/A   Clear
6:15 AM 60.8 °F - 60.8 °F 100% 30.22 in 5.0 mi Calm Calm - N/A   Clear
6:35 AM 60.8 °F - 60.8 °F 100% 30.22 in 3.0 mi Calm Calm - N/A   Clear
6:55 AM 60.8 °F - 60.8 °F 100% 30.22 in 4.0 mi Calm Calm - N/A   Clear
7:15 AM 60.8 °F - 60.8 °F 100% 30.23 in 4.0 mi Calm Calm - N/A   Clear
7:35 AM 62.6 °F - 62.6 °F 100% 30.23 in 5.0 mi Calm Calm - N/A   Clear
7:55 AM 62.6 °F - 62.6 °F 100% 30.24 in 2.5 mi Calm Calm - N/A   Clear
8:15 AM 64.4 °F - 64.4 °F 100% 30.24 in 7.0 mi Calm Calm - N/A   Clear
8:35 AM 64.4 °F - 64.4 °F 100% 30.25 in 3.0 mi Calm Calm - N/A   Clear
8:55 AM 66.2 °F - 66.2 °F 100% 30.25 in 4.0 mi Calm Calm - N/A   Clear
9:15 AM 66.2 °F - 66.2 °F 100% 30.25 in 5.0 mi Calm Calm - N/A   Clear
9:35 AM 68.0 °F - 68.0 °F 100% 30.25 in 7.0 mi Calm Calm - N/A   Clear
9:55 AM 73.4 °F - 66.2 °F 78% 30.25 in 10.0 mi Calm Calm - N/A   Clear
10:15 AM 73.4 °F - 68.0 °F 83% 30.25 in 10.0 mi Calm Calm - N/A   Clear
10:35 AM 73.4 °F - 68.0 °F 83% 30.25 in 10.0 mi Calm Calm - N/A   Partly Cloudy
10:55 AM 75.2 °F - 69.8 °F 83% 30.25 in 10.0 mi SW 6.9 mph - N/A   Clear
11:15 AM 77.0 °F - 68.0 °F 74% 30.26 in 10.0 mi WSW 9.2 mph - N/A   Partly Cloudy
11:35 AM 78.8 °F - 69.8 °F 74% 30.25 in 10.0 mi Calm Calm - N/A   Clear
11:55 AM 78.8 °F - 69.8 °F 74% 30.25 in 10.0 mi West 6.9 mph - N/A   Partly Cloudy
12:15 PM 77.0 °F - 69.8 °F 78% 30.25 in 10.0 mi WSW 3.5 mph - N/A   Scattered Clouds
12:35 PM 78.8 °F - 69.8 °F 74% 30.24 in 10.0 mi West 4.6 mph - N/A   Scattered Clouds
12:55 PM 77.0 °F - 69.8 °F 78% 30.23 in 10.0 mi West 3.5 mph - N/A   Partly Cloudy
1:15 PM 78.8 °F - 69.8 °F 74% 30.23 in 10.0 mi SW 3.5 mph - N/A   Clear
1:35 PM 78.8 °F - 69.8 °F 74% 30.23 in 10.0 mi Calm Calm - N/A   Partly Cloudy
1:55 PM 78.8 °F - 69.8 °F 74% 30.22 in 10.0 mi SW 5.8 mph - N/A   Clear
2:15 PM 80.6 °F 83.9 °F 69.8 °F 70% 30.22 in 10.0 mi West 5.8 mph - N/A   Clear
2:35 PM 78.8 °F - 69.8 °F 74% 30.21 in 10.0 mi West 5.8 mph - N/A   Scattered Clouds
2:55 PM 78.8 °F - 69.8 °F 74% 30.19 in 10.0 mi WSW 4.6 mph - N/A   Partly Cloudy
3:15 PM 78.8 °F - 69.8 °F 74% 30.18 in 10.0 mi SW 4.6 mph - N/A   Clear
3:35 PM 78.8 °F - 69.8 °F 74% 30.18 in 10.0 mi WSW 4.6 mph - N/A   Clear
3:55 PM 78.8 °F - 69.8 °F 74% 30.19 in 10.0 mi WNW 3.5 mph - N/A   Partly Cloudy
4:15 PM 78.8 °F - 69.8 °F 74% 30.17 in 10.0 mi West 3.5 mph - N/A   Clear
4:35 PM 78.8 °F - 69.8 °F 74% 30.17 in 10.0 mi West 3.5 mph - N/A   Clear
4:55 PM 80.6 °F 83.9 °F 69.8 °F 70% 30.18 in 10.0 mi SSW 8.1 mph - N/A   Partly Cloudy
5:15 PM 80.6 °F 84.6 °F 71.6 °F 74% 30.17 in 10.0 mi SW 3.5 mph - N/A   Clear
5:35 PM 78.8 °F - 69.8 °F 74% 30.16 in 10.0 mi Calm Calm - N/A   Scattered Clouds
5:55 PM 78.8 °F - 69.8 °F 74% 30.14 in 10.0 mi Calm Calm - N/A   Partly Cloudy
6:15 PM 78.8 °F - 69.8 °F 74% 30.17 in 10.0 mi SW 3.5 mph - N/A   Partly Cloudy
6:35 PM 77.0 °F - 69.8 °F 78% 30.16 in 10.0 mi South 4.6 mph - N/A   Partly Cloudy
6:55 PM 75.2 °F - 69.8 °F 83% 30.15 in 10.0 mi SSW 10.4 mph - N/A   Clear
7:15 PM 71.6 °F - 64.4 °F 78% 30.17 in 10.0 mi West 11.5 mph 21.9 mph N/A   Mostly Cloudy
7:35 PM 69.8 °F - 64.4 °F 83% 30.17 in 10.0 mi Calm Calm - N/A   Partly Cloudy
7:55 PM 68.0 °F - 64.4 °F 88% 30.18 in 10.0 mi NE 5.8 mph - N/A   Partly Cloudy
8:15 PM 68.0 °F - 66.2 °F 94% 30.18 in 10.0 mi ENE 5.8 mph - N/A   Scattered Clouds
8:35 PM 68.0 °F - 66.2 °F 94% 30.18 in 10.0 mi East 8.1 mph - N/A   Mostly Cloudy
8:55 PM 66.2 °F - 66.2 °F 100% 30.18 in 10.0 mi ENE 3.5 mph - N/A   Mostly Cloudy
9:15 PM 66.2 °F - 66.2 °F 100% 30.18 in 10.0 mi SE 3.5 mph - N/A   Clear
9:35 PM 68.0 °F - 66.2 °F 94% 30.18 in 10.0 mi Calm Calm - N/A   Clear
9:55 PM 66.2 °F - 66.2 °F 100% 30.18 in 10.0 mi Calm Calm - N/A   Clear
10:15 PM 66.2 °F - 66.2 °F 100% 30.19 in 10.0 mi Calm Calm - N/A Rain Light Rain
10:35 PM 66.2 °F - 66.2 °F 100% 30.19 in 7.0 mi South 3.5 mph - N/A Rain Light Rain
10:55 PM 66.2 °F - 66.2 °F 100% 30.19 in 5.0 mi South 8.1 mph - 0.06 in   Mostly Cloudy
11:15 PM 66.2 °F - 66.2 °F 100% 30.18 in 10.0 mi SSW 5.8 mph - N/A   Partly Cloudy
11:35 PM 66.2 °F - 66.2 °F 100% 30.19 in 10.0 mi Calm Calm - N/A   Clear
11:55 PM 64.4 °F - 64.4 °F 100% 30.20 in 10.0 mi SSW 4.6 mph - N/A   Scattered Clouds